Burlington, IA

3:03 PM CDT on August 29, 2016 (GMT -0500)
Burlington Regional

Weather History for KBRL - August, 2012

Change the Weather History Date:

Wednesday, August 22, 2012

  Actual Average Record
Temperature  
Mean Temperature 74 °F 75 °F  
Max Temperature 93 °F 85 °F 101 °F (1936)
Min Temperature 54 °F 65 °F 50 °F (1923)
Degree Days  
Heating Degree Days 0 0  
Month to date heating degree days 3 0  
Since 1 June heating degree days 12 14  
Since 1 July heating degree days 3 1  
Cooling Degree Days 9 10  
Month to date cooling degree days 139 234  
Year to date cooling degree days 1074 963  
Since 1 June cooling degree days 879 860  
Growing Degree Days 24 (Base 50)    
Moisture  
Dew Point 53 °F    
Average Humidity 52    
Maximum Humidity 80    
Minimum Humidity 23    
Precipitation  
Precipitation 0.00 in 0.14 in 1.58 in (1988)
Month to date precipitation 0.80 2.99  
Year to date precipitation 14.33 25.97  
Sea Level Pressure  
Sea Level Pressure 30.02 in    
Wind  
Wind Speed 6 mph (SE)    
Max Wind Speed 13 mph    
Max Gust Speed 16 mph    
Visibility 10 miles    
Events      
T = Trace of Precipitation, MM = Missing Value Source: NWS Daily Summary

Daily Weather History Graph

Daily Weather History Graph

Search for Another Location

Airport or City:

Trip Planner

Search our weather history database for the weather conditions in past years. The results will help you decide how hot, cold, wet, or windy it might be!

Date:

Astronomy

Aug. 22, 2012 Rise Set
Actual Time 6:22 AM CDT 7:51 PM CDT
Civil Twilight 5:53 AM CDT 8:20 PM CDT
Nautical Twilight 5:18 AM CDT 8:54 PM CDT
Astronomical Twilight 4:41 AM CDT 9:31 PM CDT
Moon 12:04 PM CDT (8/22) 10:30 PM CDT (8/22)
Length of Visible Light 14h 27m
Length of Day
13h 29m
Waxing Crescent, 29% of the Moon is Illuminated
Aug 22
Waxing Crescent
Aug 24
First Quarter
Aug 31
Full
Sep 8
Last Quarter
Sep 15
New

Hourly Weather History & Observations

Time (CDT) Temp. Heat Index Dew Point Humidity Pressure Visibility Wind Dir Wind Speed Gust Speed Precip Events Conditions
12:53 AM 63.0 °F - 48.9 °F 60% 30.05 in 10.0 mi SE 5.8 mph - N/A   Clear
1:53 AM 62.1 °F - 48.9 °F 62% 30.04 in 10.0 mi SE 5.8 mph - N/A   Clear
2:53 AM 62.1 °F - 50.0 °F 65% 30.04 in 10.0 mi SE 5.8 mph - N/A   Clear
3:53 AM 62.1 °F - 50.0 °F 65% 30.04 in 10.0 mi SE 5.8 mph - N/A   Clear
4:53 AM 57.0 °F - 50.0 °F 77% 30.04 in 10.0 mi Calm Calm - N/A   Clear
5:53 AM 57.9 °F - 51.1 °F 78% 30.05 in 10.0 mi East 3.5 mph - N/A   Clear
6:53 AM 60.1 °F - 52.0 °F 75% 30.06 in 10.0 mi ESE 3.5 mph - N/A   Clear
7:53 AM 64.0 °F - 53.1 °F 67% 30.07 in 10.0 mi SE 3.5 mph - N/A   Clear
8:53 AM 69.1 °F - 54.0 °F 58% 30.06 in 10.0 mi SSE 5.8 mph - N/A   Clear
9:53 AM 75.0 °F - 55.0 °F 50% 30.07 in 10.0 mi SSE 6.9 mph - N/A   Clear
10:53 AM 80.1 °F 80.4 °F 57.0 °F 45% 30.06 in 10.0 mi South 9.2 mph - N/A   Clear
11:53 AM 84.0 °F 83.0 °F 55.9 °F 38% 30.06 in 10.0 mi South 8.1 mph - N/A   Clear
12:53 PM 87.1 °F 85.1 °F 54.0 °F 32% 30.05 in 10.0 mi South 8.1 mph - N/A   Clear
1:53 PM 89.1 °F 86.7 °F 53.1 °F 29% 30.03 in 10.0 mi ESE 9.2 mph - N/A   Clear
2:53 PM 91.0 °F 88.5 °F 53.1 °F 27% 30.00 in 10.0 mi Variable 5.8 mph - N/A   Scattered Clouds
3:53 PM 91.9 °F - 52.0 °F 26% 29.99 in 10.0 mi SSE 9.2 mph - N/A   Clear
4:53 PM 91.9 °F - 51.1 °F 25% 29.98 in 10.0 mi Variable 4.6 mph - N/A   Clear
5:53 PM 91.9 °F - 48.9 °F 23% 29.97 in 10.0 mi SSE 5.8 mph - N/A   Clear
6:53 PM 89.1 °F 87.3 °F 55.9 °F 32% 29.96 in 10.0 mi ESE 6.9 mph - N/A   Clear
7:53 PM 82.0 °F 81.7 °F 57.0 °F 42% 29.96 in 10.0 mi ESE 5.8 mph - N/A   Clear
8:53 PM 79.0 °F - 57.0 °F 47% 29.98 in 10.0 mi SE 6.9 mph - N/A   Clear
9:53 PM 78.1 °F - 54.0 °F 43% 29.98 in 10.0 mi SE 8.1 mph - N/A   Clear
11:53 PM 73.9 °F - 54.0 °F 50% 30.00 in 10.0 mi South 6.9 mph - N/A   Clear